ARIANE 2 DEB, 28567

Orbit data source: Space-Track

ARIANE 2 DEB, 28567 is space debris in HEO originally from a launch on Fri, 27 Jan 1989 UTC launched from the French Guiana (FRGUI). Debris objects in space refer to the collection of defunct objects orbiting the Earth. Examples of debris include non-operational satellites, rocket bodies, and fragments generated from explosions, collisions, or faulty payload assembly.

Loading next visibility...
Identifier
28567, 1989-006AJ
Orbit
HEO
Country
Flag of FRFR
Related business
Manufacturer
EADS/LV
Mission
Spacecraft
Bus & Motor
Unknown
Mass
Unknown
Launch date (UTC)
1989-01-27 (37 years ago)
Launch vehicle
Unknown
Launch site
French Guiana (FRGUI)
Object type
Payload
Rocket body
Debris
Shape & HBR
Unknown
Radar Cross Section
Medium (>0.1 m² and <1 m²)

Expand to show TLE details & history
Last TLE update: 1 day ago

TLE from 1 day ago
0 ARIANE 2 DEB
1 28567U 89006AJ  25259.82264115  .00000473  00000-0  42549-2 0  9993
2 28567   7.9131  75.3176 7100289  86.2150 345.3511  2.37907239113974
Epoch: 2025-09-16T19:44Z
TLE epoch observation values (Epoch: 2025-09-16T19:44:36.195Z)
Latitude
-0.00004°
Longitude
143.42712°
Altitude
4,782.99 km
Speed
7.389 km/s
True Right ascension
05h 02m 20s
True Declination
0° 00' 00"
Sunlit
Object was in daylight at epoch
Visualization orbit readout
Latitude
Unknown
Longitude
Unknown
Altitude
Unknown
Speed
Unknown
Apparent Right ascension
Unknown
Apparent Declination
Unknown
Sunlit
N/A
Visualization observer readout
Local Sidereal Time
22:53:43
Azimuth
Unknown
Elevation
Unknown
Doppler factor
Unknown
Orbital elements
Apogee altitude
34,162.931 km
Perigee altitude
496.448 km
Semi-major axis
23,707.826 km
Eccentricity
0.71003
Inclination
7.9131°
RAAN
75.3176°
Arg. of periapsis
86.215°
True anomaly
274.43179°
Mean anomaly
345.3511°
Eccentric anomaly
318.27537°
Mean motion
0.59457 °/min
Orbital period
605.48 mins
BSTAR
0.0042549
Loading maneuver chart data...
Computing Atmospheric mass density...
Loading historical data...
Loading historical data...
Loading historical data...
Loading historical data...
Loading historical data...
Loading historical data...
Loading historical data...

Documentation

Showing up to 5 results
|